Meriden, CT

3:26 AM EDT on July 24, 2017 (GMT -0400)
Meriden Markham Municipal

Weather History for KMMK - August, 2014

Change the Weather History Date:

Saturday, August 23, 2014

  Actual Average (KOXC) Record (KOXC)
Temperature  
Mean Temperature 66 °F -  
Max Temperature 77 °F 75 °F 86 °F (1996)
Min Temperature 57 °F 58 °F 51 °F (1999)
Cooling Degree Days 2    
Growing Degree Days 16 (Base 50)    
Moisture  
Dew Point 58 °F    
Average Humidity 71    
Maximum Humidity 93    
Minimum Humidity 53    
Precipitation  
Precipitation 0.00 in - - ()
Sea Level Pressure  
Sea Level Pressure 30.10 in    
Wind  
Wind Speed 5 mph (NNE)    
Max Wind Speed 9 mph    
Max Gust Speed -    
Visibility 10 miles    
Events      
Averages and records for this station are not official NWS values.
T = Trace of Precipitation, MM = Missing Value Source: NWS Daily Summary

Daily Weather History Graph

Daily Weather History Graph

Search for Another Location

Airport or City:

Trip Planner

Search our weather history database for the weather conditions in past years. The results will help you decide how hot, cold, wet, or windy it might be!

Date:

Astronomy

Aug. 23, 2014 Rise Set
Actual Time 6:08 AM EDT 7:38 PM EDT
Civil Twilight 5:39 AM EDT 8:07 PM EDT
Nautical Twilight 5:03 AM EDT 8:42 PM EDT
Astronomical Twilight 4:26 AM EDT 9:20 PM EDT
Moon 4:21 AM EDT (8/23) 6:22 PM EDT (8/23)
Length of Visible Light 14h 28m
Length of Day
13h 30m
Waning Crescent, 3% of the Moon is Illuminated
Aug 23
Waning Crescent
Aug 25
New
Sep 2
First Quarter
Sep 8
Full
Sep 15
Last Quarter

Hourly Weather History & Observations

Time (EDT) Temp. Dew Point Humidity Pressure Visibility Wind Dir Wind Speed Gust Speed Precip Events Conditions
12:53 AM 66.9 °F 62.1 °F 84% 30.08 in 10.0 mi North 3.5 mph - N/A   Overcast
1:53 AM 66.0 °F 61.0 °F 84% 30.07 in 10.0 mi NNE 5.8 mph - N/A   Overcast
2:53 AM 66.0 °F 57.9 °F 75% 30.07 in 10.0 mi NNE 8.1 mph - N/A   Overcast
3:53 AM 64.9 °F 59.0 °F 81% 30.07 in 10.0 mi North 4.6 mph - N/A   Overcast
4:04 AM 64.9 °F 59.0 °F 81% 30.07 in 10.0 mi NNE 5.8 mph - N/A   Overcast
5:53 AM 64.9 °F 59.0 °F 81% 30.08 in 10.0 mi NNE 6.9 mph - N/A   Overcast
6:17 AM 64.0 °F 59.0 °F 84% 30.09 in 10.0 mi NNE 6.9 mph - N/A   Scattered Clouds
8:10 AM 64.9 °F 57.9 °F 78% 30.11 in 10.0 mi NNE 5.8 mph - N/A   Mostly Cloudy
8:53 AM 66.9 °F 59.0 °F 76% 30.10 in 10.0 mi Variable 5.8 mph - N/A   Mostly Cloudy
9:08 AM 66.9 °F 57.9 °F 73% 30.11 in 10.0 mi NE 8.1 mph - N/A   Scattered Clouds
9:50 AM 69.8 °F 59.0 °F 68% 30.11 in 10.0 mi Variable 4.6 mph - N/A   Mostly Cloudy
9:53 AM 69.1 °F 57.9 °F 68% 30.11 in 10.0 mi NNE 5.8 mph - N/A   Mostly Cloudy
10:49 AM 71.6 °F 57.2 °F 60% 30.12 in 10.0 mi ENE 4.6 mph - N/A   Overcast
10:53 AM 71.1 °F 57.9 °F 63% 30.11 in 10.0 mi North - - N/A   Overcast
11:24 AM 72.0 °F 57.9 °F 61% 30.11 in 10.0 mi Variable 6.9 mph - N/A   Overcast
11:53 AM 73.0 °F 57.0 °F 57% 30.11 in 10.0 mi East 8.1 mph - N/A   Mostly Cloudy
12:53 PM 73.0 °F 55.9 °F 55% 30.10 in 10.0 mi NE 9.2 mph - N/A   Mostly Cloudy
1:53 PM 73.0 °F 55.9 °F 55% 30.09 in 10.0 mi Calm Calm - N/A   Overcast
2:53 PM 73.9 °F 55.9 °F 53% 30.09 in 10.0 mi NNE 4.6 mph - N/A   Overcast
3:53 PM 73.0 °F 55.9 °F 55% 30.09 in 10.0 mi NE 3.5 mph - N/A   Overcast
5:53 PM 73.0 °F 55.9 °F 55% 30.10 in 10.0 mi Variable 3.5 mph - N/A   Overcast
6:53 PM 72.0 °F 55.9 °F 57% 30.10 in 10.0 mi Calm Calm - N/A   Overcast
7:53 PM 69.1 °F 57.0 °F 65% 30.11 in 10.0 mi Calm Calm - N/A   Overcast
8:53 PM 64.9 °F 57.0 °F 75% 30.12 in 10.0 mi Calm Calm - N/A   Mostly Cloudy
9:53 PM 62.1 °F 57.0 °F 84% 30.13 in 10.0 mi Calm Calm - N/A   Clear
10:53 PM 60.1 °F 57.0 °F 90% 30.13 in 10.0 mi Calm Calm - N/A   Clear
11:53 PM 57.9 °F 55.9 °F 93% 30.14 in 10.0 mi Calm Calm - N/A   Clear